Location: Beaudricourt
(50.2483°N, 2.4074°E)
Time: 01:34:25
(UTC+00:00)

Daily predictions for brighter satellites

Satellite Brightness Start Highest point End
(mag) Time Altitude Azimuth Time Altitude Azimuth Time Altitude Azimuth
NOSS 2-2 (D) 4.2 00:00:23 10° NW 00:05:11 83° NE 00:11:38 11° SE
Cosmos 1461 3.0 00:01:31 10° NW 00:05:35 56° SW 00:06:31 45° S
Gblst 52 Del rocket 4.2 00:00:07 10° WSW 00:06:23 84° SSE 00:12:01 10° ENE
Cosmos 1553 Rocket 3.9 00:03:21 31° S 00:06:27 84° E 00:12:42 10° N
Cosmos 1867 3.7 00:05:01 34° SSW 00:07:18 63° SE 00:12:44 10° NE
Cosmos 2221 Rocket 3.5 00:06:47 41° S 00:08:17 86° E 00:12:43 10° N
Cosmos 1674 Rocket 3.7 00:06:55 38° SSE 00:08:20 60° E 00:12:36 10° NNE
USA 306 4.2 00:11:52 24° SE 00:11:52 24° SE 00:14:54 10° E
Cosmos 1674 2.5 00:10:51 51° SSW 00:11:43 82° W 00:15:30 10° N
Cosmos 1238 Rocket 1.9 00:09:02 10° NNW 00:11:59 76° W 00:12:06 74° SW
ATLAS CENTAUR R/B 2.8 00:09:23 10° WNW 00:13:27 27° WSW 00:13:59 26° SW
USA 307 4.3 00:15:20 23° SE 00:15:20 23° SE 00:18:17 10° E
SL-19 R/B 4.2 00:17:33 45° WSW 00:17:33 45° WSW 00:20:23 10° NNW
SL-16 R/B 4.4 00:16:31 10° SE 00:19:12 14° E 00:21:54 10° ENE
Cosmos 2322 Rocket 4.0 00:17:17 10° W 00:22:00 27° NW 00:26:44 10° NNE
Cosmos 468 4.4 00:16:48 10° NNW 00:22:02 74° WSW 00:24:28 32° S
ATLAS 5 CENTAUR R/B 3.3 00:07:45 10° NW 00:22:05 67° SW 00:24:39 28° SSE
CZ-4C R/B 3.1 00:15:18 10° NW 00:22:22 59° SW 00:27:52 22° SSE
Cosmos 1980 4.4 00:20:38 28° SSE 00:23:03 42° ESE 00:28:21 10° NE
Cosmos 2333 Rocket 2.8 00:19:42 19° SW 00:23:36 54° NW 00:29:11 10° NNE
Cosmos 1378 Rocket 3.5 00:22:19 40° S 00:23:54 82° E 00:28:22 10° NNE
Cosmos 2322 3.9 00:20:47 25° SW 00:24:14 69° WNW 00:29:59 10° NNE
USA 215 3.5 00:20:23 10° ENE 00:26:56 73° NNW 00:33:27 10° WSW
NOSS 0 Rocket 4.1 00:29:23 29° S 00:32:32 62° ESE 00:38:42 10° NE
PSLV R/B 3.9 00:28:49 10° N 00:33:07 59° WNW 00:35:01 32° SW
Meteor 2-10 Rocket 4.0 00:31:48 10° N 00:37:30 63° ENE 00:41:17 20° SSE
USA 32 4.3 00:35:15 27° SSE 00:38:00 61° E 00:43:12 10° NNE
Cosmos 2151 Rocket 4.3 00:35:25 10° NNW 00:39:31 39° W 00:40:53 31° SW
Cosmos 1745 Rocket 4.0 00:35:02 10° NNW 00:41:14 67° W 00:44:35 28° S
Cosmos 1975 Rocket 4.3 00:39:39 21° SE 00:41:54 35° E 00:45:57 10° NNE
Cosmos 839 Rocket 4.1 00:36:30 10° NW 00:42:48 73° SW 00:49:12 14° SSE
Okean 2 Rocket 4.2 00:39:44 10° NNW 00:43:46 32° W 00:45:14 26° SW
Okean 2 4.4 00:42:13 26° WSW 00:43:47 35° WNW 00:47:35 10° N
ADEOS Rocket 4.1 00:42:18 21° SW 00:44:41 28° W 00:49:45 10° NNW
USA 308 3.5 00:44:46 34° SSE 00:45:22 36° SE 00:49:13 10° ENE
Cosmos 2219 Rocket 2.9 00:42:56 18° WSW 00:46:54 47° NW 00:52:19 10° NNE
Meteor 2-12 Rocket 4.4 00:42:45 10° NNW 00:48:52 79° W 00:52:26 26° S
Cosmos 1455 4.5 00:46:17 10° NNE 00:49:05 20° ENE 00:51:52 10° ESE
Cosmos 1025 Rocket 4.3 00:47:03 19° SE 00:49:22 33° E 00:53:13 10° NNE
GP-B 3.1 00:51:29 10° N 00:55:56 76° E 00:58:07 30° S
CZ-2D R/B 3.2 00:53:57 10° NNE 00:58:56 37° E 01:02:28 17° SSE
Meteor 2-5 Rocket 4.5 00:55:38 19° SSE 00:59:27 46° E 01:04:50 10° NNE
Cosmos 1300 2.6 00:56:23 10° NNW 01:00:10 69° W 01:01:27 38° SSW
Lacrosse 5 3.2 00:58:31 21° SSE 01:00:10 24° SE 01:04:15 10° ENE
SL-14 R/B 3.4 01:02:27 35° SW 01:03:51 61° WNW 01:07:42 10° N
USA 267 4.1 01:02:14 25° SSW 01:04:15 29° SW 01:09:50 10° WNW
Cosmos 371 Rocket 3.4 01:06:03 28° SW 01:08:35 73° WNW 01:13:27 10° NNE
USA 305 2.9 01:07:08 34° SSW 01:08:42 57° SSE 01:12:49 10° ENE
Cosmos 2150 Rocket 4.1 01:06:08 27° SW 01:09:00 72° WNW 01:14:10 10° NNE
Cosmos 1544 Rocket 4.5 01:05:12 10° N 01:09:29 46° ENE 01:13:10 13° SE
USA 229 DEB 4.2 01:02:40 10° NW 01:09:37 47° WSW 01:15:06 18° S
USA 229 4.2 01:02:46 10° NW 01:09:44 47° WSW 01:15:15 18° S
Cosmos 2237 Rocket 2.2 01:11:28 26° SSW 01:14:50 90° SW 01:20:36 10° NNE
COSMOS 2428 3.7 01:12:17 15° WSW 01:16:39 41° NW 01:22:02 10° NNE
Cosmos 1437 Rocket 4.0 01:15:27 10° NW 01:18:29 23° W 01:19:16 22° WSW
Cosmos 405 Rocket 4.1 01:18:03 20° WSW 01:19:36 27° WNW 01:22:53 10° N
Cosmos 304 Rocket 3.7 01:17:17 28° SSW 01:19:53 88° WNW 01:24:45 10° NNE
SL-16 R/B 2.8 01:14:58 10° SSE 01:21:09 73° ENE 01:27:23 10° NNW
Okean 1 Rocket 4.2 01:18:40 10° NNW 01:22:27 29° W 01:24:05 22° SW
Lacrosse 5 rocket 3.0 01:21:54 16° SSE 01:23:01 18° SE 01:25:48 10° E
Cosmos 1125 Rocket 3.9 01:20:01 22° SW 01:23:12 54° WNW 01:28:20 10° NNE
Cosmos 1953 3.7 01:22:00 10° NW 01:25:15 24° W 01:26:26 21° WSW
SME Rocket 3.3 01:24:35 26° S 01:26:44 60° WSW 01:31:56 10° NNW
Cosmos 2074 Rocket 4.2 01:21:24 10° N 01:27:42 71° ENE 01:33:59 10° SSE
Resurs 1-4 Rocket 2.3 01:23:01 10° NNE 01:28:16 64° ESE 01:31:56 20° S
Cosmos 2297 3.9 01:26:31 10° NNW 01:32:19 75° ENE 01:38:03 10° SE
Cosmos 1943 Rocket 2.2 01:26:38 10° NNW 01:32:21 89° WSW 01:38:02 10° SSE
Cosmos 1709 Rocket 4.5 01:29:50 10° NNW 01:35:35 43° W 01:39:17 21° SSW
MOZ.5/SAFIR/RUBIN 5/SL-8 4.3 01:33:59 24° SSW 01:36:21 42° W 01:40:53 10° NNW
Cosmos 2315 Rocket 4.3 01:35:34 21° SSW 01:39:52 57° WNW 01:46:11 10° N
Cosmos 2184 Rocket 4.0 01:36:19 10° N 01:42:37 85° E 01:48:45 10° S
EO 1 Delta rocket 4.5 01:38:30 10° N 01:42:54 45° WNW 01:46:02 20° SW
Cosmos 2278 Rocket 3.4 01:38:35 10° NW 01:43:06 25° WSW 01:45:23 19° SW
ADEOS II 2.8 01:39:03 10° NNE 01:44:10 49° E 01:48:40 13° S
IDEFIX/ARIANE 42P 3.5 01:40:01 10° NNE 01:45:01 42° E 01:49:52 11° SSE
USA 306 2.8 01:47:34 18° WSW 01:50:41 89° N 01:54:52 10° ENE
Cosmos 2084 Rocket 3.2 01:49:15 24° SSW 01:51:22 71° SE 01:55:10 10° NE
Thor Agena Rocket 4.1 01:47:20 10° N 01:52:25 49° WNW 01:56:09 18° SW
USA 307 2.8 01:51:04 18° WSW 01:54:09 87° SSE 01:58:22 10° ENE
NPP 3.7 01:50:53 10° NNE 01:56:19 88° ESE 02:00:36 17° SSW
ERBS 2.0 01:54:54 23° WSW 01:56:38 78° NNW 01:59:43 10° NE
Cosmos 2369 Rocket 2.7 01:52:01 10° NNW 01:57:36 62° ENE 02:03:08 10° SE
Gblst 52 Del rocket 4.3 01:52:21 10° W 01:58:16 79° N 02:03:46 10° E
Cosmos 1455 Rocket 4.0 01:56:50 10° NNW 02:00:49 32° W 02:03:14 19° SW
CZ-4 R/B 3.8 01:56:40 10° N 02:01:18 69° WNW 02:04:41 18° SSW
Cosmos 614 Rocket 4.0 01:56:07 10° NNW 02:01:20 89° WSW 02:06:33 10° SSE
Cosmos 2228 3.9 01:57:12 10° N 02:01:29 51° ENE 02:05:43 10° SSE
SL-16 R/B 2.3 01:58:00 18° SSW 02:02:21 77° ESE 02:08:02 10° NNE
EO 1 Del DPAF 3.8 01:59:00 10° NNE 02:02:25 46° E 02:05:16 14° S
Cosmos 2251 Rocket 4.0 01:58:03 10° NNW 02:03:18 63° ENE 02:08:33 10° SE
Cosmos 1656 Rocket 4.3 02:01:37 10° NNW 02:07:00 58° NE 02:12:20 10° SE
Meteor 1-28 Rocket 3.1 02:03:36 11° SSE 02:07:11 86° WSW 02:10:57 10° NNW
USA 215 4.2 02:03:17 10° ENE 02:09:33 50° N 02:15:49 10° WNW
COSMOS 2455 3.4 02:04:48 14° S 02:09:51 50° ESE 02:15:39 10° NE
CZ-4C R/B 4.5 02:05:44 10° WNW 02:10:01 16° WSW 02:12:59 13° SW
Cosmos 1536 Rocket 3.6 02:08:03 14° S 02:11:48 81° E 02:16:12 10° NNE
Cosmos 1975 Rocket 4.3 02:16:47 14° WSW 02:19:48 29° WNW 02:23:43 10° N
Nadezhda 1 Rocket 4.1 02:15:05 11° S 02:21:19 90° NNW 02:27:38 10° N
Meteor 1-24 Rocket 4.1 02:17:03 15° SW 02:21:32 51° WNW 02:26:50 10° N
MSX 4.2 02:16:25 10° NNE 02:22:11 66° ESE 02:27:55 10° S
UNK 4.2 02:19:09 13° SSW 02:22:56 42° W 02:27:20 10° NNW
Cosmos 1455 2.8 02:21:16 10° NNW 02:24:42 36° W 02:27:23 15° SSW
USA 308 3.1 02:20:38 10° WSW 02:24:49 72° NNW 02:29:01 10° ENE
Cosmos 1025 Rocket 4.2 02:23:55 14° SW 02:26:58 29° WNW 02:30:45 10° N
MOS 1 Rocket 3.5 02:23:22 13° SSW 02:27:00 42° W 02:31:08 10° NNW
Cosmos 1271 Rocket 2.8 02:24:49 10° NNW 02:28:35 60° W 02:32:22 10° S
Cosmos 1606 Rocket 3.9 02:28:16 10° N 02:32:43 70° ENE 02:37:05 10° SSE
ALOS 4.3 02:32:29 10° NE 02:36:18 24° E 02:40:06 10° SSE
CZ-2C R/B 4.4 02:34:06 10° NE 02:38:27 27° E 02:42:41 10° SSE
CZ-2D R/B 2.9 02:34:01 10° N 02:39:00 39° WNW 02:43:47 11° SW
Lacrosse 5 1.9 02:37:42 11° WSW 02:42:40 89° NNW 02:47:47 10° ENE
Helios 1B rocket 3.7 02:39:29 10° NNE 02:43:19 38° E 02:47:07 10° SSE
Cosmos 2366 rocket 4.5 02:38:44 10° N 02:44:52 64° ENE 02:51:00 10° SSE
Cosmos 2341 Rocket 4.1 02:39:00 10° N 02:45:26 88° E 02:51:51 10° S
USA 305 3.4 02:44:13 10° W 02:48:20 57° NNW 02:52:28 10° ENE
Cosmos 2154 Rocket 4.4 02:42:45 10° NNW 02:48:46 46° W 02:54:43 10° SSW
Meteor 2-1 Rocket 4.3 02:44:12 10° NNW 02:50:01 85° W 02:55:41 10° S
BREEZE-M DEB (TANK) 4.2 02:47:21 10° SSW 02:50:57 21° SSE 02:53:02 10° ESE
Cosmos 407 Rocket 3.6 02:45:55 10° NNW 02:51:17 87° ENE 02:56:34 10° SSE
SL-8 Rocket 4.2 02:45:49 10° N 02:52:11 83° E 02:58:31 10° S
Cosmos 1943 3.7 02:51:48 10° S 02:57:23 59° ESE 03:02:59 10° NE
Cosmos 1328 4.0 02:53:31 10° S 02:57:26 73° E 03:01:27 10° NNE
Helios 1A 3.9 02:54:00 10° SSW 02:57:42 30° W 03:01:28 10° NNW
Genesis I 3.2 02:54:47 10° NW 02:58:53 83° SW 03:02:54 10° SE
Cosmos 2237 Rocket 3.9 02:55:12 10° W 02:59:42 23° NW 03:04:14 10° NNE
Lacrosse 5 rocket 1.3 02:57:37 10° WSW 03:01:32 89° NNW 03:05:43 10° ENE
Cosmos 1140 Rocket 3.5 02:56:58 10° NNW 03:02:13 75° WSW 03:07:27 10° SSE
SL-16 R/B 3.7 03:00:29 10° SW 03:05:20 24° W 03:10:15 10° NW
Resurs 1-4 Rocket 3.6 03:03:33 10° N 03:07:41 24° WNW 03:11:48 10° WSW
SeaSat 1 4.5 03:04:27 10° NE 03:08:24 23° ESE 03:12:20 10° SSE
NOSS 3-4 (A) 4.4 03:02:55 10° NW 03:09:37 64° NE 03:17:14 10° ESE
NOSS 3-4 (C) 4.4 03:03:00 10° NW 03:09:41 64° NE 03:17:16 10° ESE
Lacrosse 4 Rocket 4.0 03:07:16 10° SE 03:09:45 15° ESE 03:12:12 10° ENE
Cosmos 1892 Rocket 3.8 03:06:47 10° S 03:11:15 81° E 03:15:45 10° NNE
